Weather in Lanzhou

China     36°05′18″N   103°41′19″E
temp.,
°C
wind,
m/s
gust,
m/s
humid.,
%
clouds,
%
prec.,
mm/h
press.,
hPa
HPBL,
m
27 october, wed
wed2723:00+5nnw1163100 0.0 1025725
02:00+4wsw117072 0.1 1024491
05:00+4nnw2169100 0.0 1024592
08:00+4e1169100 0.1 1024400
11:00+6n116070 0.0 1024866
14:00+8ne115132 0.0 10201135
17:00+9ne214768 0.0 10201080
20:00+8ene12543 0.0 1021553
28 october, thu
thu2823:00+7ne115696 0.0 1023263
02:00+6ene1159100 0.0 1023178
05:00+6ene1162100 0.0 1022209
08:00+6ne1164100 0.0 1024191
11:00+8ne1155100 0.0 1024655
14:00+10ne2246100 0.0 10211251
17:00+10ne334690 0.0 10201141
20:00+9nne2348100 0.0 1022425
29 october, fri
fri2923:00+9ssw1150100 0.0 1024381
02:00+7ssw3358100 0.0 1024524
05:00+6sw2262100 0.0 1024209
08:00+6ssw22615 0.0 1026119
11:00+9wsw12471 0.0 1025713
14:00+12w02380 0.0 10211112
17:00+13ene22350 0.0 1019934
20:00+10ese22470 0.0 1021232
30 october, sat
sat3023:00+9se115035 0.0 102146
02:00+8ene115368 0.0 102092
05:00+7nne115850 0.0 1021126
08:00+7nne1163100 0.0 1022148
11:00+8nne2256100 0.0 1023694
14:00+10nne3450100 0.0 10221218
17:00+9ene465490 0.2 10231234
20:00+8ene673998 0.3 10271338
31 october, sun
sun3123:00+7se243794 0.0 1028376
02:00+6sse224680 0.0 1028312
05:00+4ssw236819 0.0 1029184
08:00+3ssw22727 0.0 1029182
11:00+6ssw125835 0.0 1028747
14:00+9ne1246100 0.0 10241327
17:00+10ene2339100 0.0 10221538
20:00+9s1145100 0.0 1023553